Cincinnati, OH

11:00 AM EST on December 17, 2017 (GMT -0500)
Cincinnati Municipal-Lunken

Weather History for KLUK - November, 2013

Change the Weather History Date:

Saturday, November 23, 2013

  Actual Average Record
Temperature  
Mean Temperature 32 °F -  
Max Temperature 39 °F 52 °F 73 °F (1999)
Min Temperature 23 °F 33 °F 16 °F (1970)
Degree Days  
Heating Degree Days 34    
Moisture  
Dew Point 21 °F    
Average Humidity 66    
Maximum Humidity 82    
Minimum Humidity 39    
Precipitation  
Precipitation 0.00 in - - ()
Sea Level Pressure  
Sea Level Pressure 30.47 in    
Wind  
Wind Speed 10 mph (NNW)    
Max Wind Speed 20 mph    
Max Gust Speed 28 mph    
Visibility 10 miles    
Events Snow    
Averages and records for this station are not official NWS values.
T = Trace of Precipitation, MM = Missing Value Source: NWS Daily Summary

Daily Weather History Graph

Daily Weather History Graph

Search for Another Location

Airport or City:

Trip Planner

Search our weather history database for the weather conditions in past years. The results will help you decide how hot, cold, wet, or windy it might be!

Date:

Astronomy

Nov. 23, 2013 Rise Set
Actual Time 7:29 AM EST 5:18 PM EST
Civil Twilight 7:00 AM EST 5:47 PM EST
Nautical Twilight 6:27 AM EST 6:20 PM EST
Astronomical Twilight 5:56 AM EST 6:52 PM EST
Moon 10:44 PM EST (11/23) 11:47 AM EST (11/23)
Length of Visible Light 10h 46m
Length of Day
9h 48m
Waning Gibbous, 70% of the Moon is Illuminated
Nov 23
Waning Gibbous
Nov 25
Last Quarter
Dec 2
New
Dec 9
First Quarter
Dec 17
Full

Hourly Weather History & Observations

Time (EST) Temp. Windchill Dew Point Humidity Pressure Visibility Wind Dir Wind Speed Gust Speed Precip Events Conditions
12:09 AM 39.2 °F 32.5 °F 30.2 °F 70% 30.39 in 10.0 mi North 10.4 mph - N/A   Overcast
12:53 AM 37.9 °F 31.5 °F 30.0 °F 73% 30.40 in 10.0 mi North 9.2 mph - N/A   Mostly Cloudy
1:53 AM 37.0 °F 29.8 °F 30.0 °F 76% 30.40 in 10.0 mi North 10.4 mph - N/A   Overcast
2:50 AM 35.6 °F 29.9 °F 28.4 °F 75% 30.40 in 10.0 mi North 6.9 mph - N/A   Overcast
2:53 AM 35.1 °F 29.3 °F 28.9 °F 78% 30.40 in 10.0 mi North 6.9 mph - N/A   Overcast
3:53 AM 34.0 °F 28.0 °F 28.0 °F 79% 30.41 in 10.0 mi NNW 6.9 mph - N/A   Scattered Clouds
4:53 AM 33.1 °F 26.1 °F 27.0 °F 78% 30.41 in 10.0 mi NNW 8.1 mph - N/A   Clear
5:53 AM 32.0 °F 25.6 °F 27.0 °F 82% 30.41 in 10.0 mi NNW 6.9 mph - N/A   Clear
6:53 AM 32.0 °F 25.6 °F 27.0 °F 82% 30.43 in 10.0 mi NNW 6.9 mph - N/A   Clear
7:53 AM 32.0 °F - 27.0 °F 82% 30.44 in 10.0 mi Calm Calm - N/A   Clear
8:53 AM 33.1 °F 28.7 °F 27.0 °F 78% 30.44 in 10.0 mi NW 4.6 mph - N/A   Clear
9:53 AM 34.0 °F 28.8 °F 24.1 °F 67% 30.44 in 10.0 mi Variable 5.8 mph - N/A   Clear
10:53 AM 36.0 °F 33.3 °F 21.0 °F 55% 30.43 in 10.0 mi West 3.5 mph - N/A   Clear
11:53 AM 39.9 °F 34.5 °F 21.0 °F 47% 30.40 in 10.0 mi West 8.1 mph - N/A   Clear
12:53 PM 37.9 °F 31.5 °F 15.1 °F 39% 30.38 in 10.0 mi NW 9.2 mph 17.3 mph N/A   Clear
1:53 PM 36.0 °F 28.5 °F 18.0 °F 48% 30.40 in 10.0 mi NW 10.4 mph 23.0 mph N/A   Clear
2:53 PM 35.1 °F 25.5 °F 19.9 °F 54% 30.41 in 10.0 mi NW 15.0 mph 24.2 mph N/A   Mostly Cloudy
3:53 PM 34.0 °F 22.7 °F 17.1 °F 50% 30.44 in 10.0 mi NNW 19.6 mph 27.6 mph N/A   Overcast
4:53 PM 33.1 °F 24.4 °F 16.0 °F 50% 30.46 in 10.0 mi NW 11.5 mph 20.7 mph N/A   Overcast
5:53 PM 30.0 °F 19.5 °F 19.0 °F 64% 30.48 in 10.0 mi NNW 13.8 mph 21.9 mph N/A   Overcast
6:53 PM 28.0 °F 17.0 °F 15.1 °F 58% 30.52 in 10.0 mi NW 13.8 mph 19.6 mph N/A   Mostly Cloudy
7:53 PM 27.0 °F 15.6 °F 14.0 °F 58% 30.54 in 10.0 mi NW 13.8 mph 19.6 mph N/A   Partly Cloudy
8:53 PM 27.0 °F 18.7 °F 14.0 °F 58% 30.56 in 10.0 mi NNW 8.1 mph - N/A   Overcast
9:53 PM 26.1 °F 13.1 °F 12.9 °F 58% 30.58 in 10.0 mi North 17.3 mph 26.5 mph N/A   Overcast
10:12 PM 24.8 °F 10.7 °F 17.6 °F 74% 30.57 in 1.8 mi North 19.6 mph 26.5 mph 0.00 in Snow Light Snow
10:21 PM 24.8 °F 14.0 °F 17.6 °F 74% 30.57 in 2.5 mi NNW 11.5 mph - 0.00 in Snow Light Snow
10:28 PM 24.8 °F 12.4 °F 17.6 °F 74% 30.57 in 10.0 mi NNW 15.0 mph 20.7 mph 0.00 in   Overcast
10:53 PM 24.1 °F 13.1 °F 16.0 °F 71% 30.60 in 10.0 mi North 11.5 mph - 0.00 in   Mostly Cloudy
11:53 PM 23.0 °F 11.7 °F 10.0 °F 58% 30.61 in 10.0 mi NNW 11.5 mph 23.0 mph N/A   Mostly Cloudy